Simultaneous Nadir Overpasses (SNOs) Predictions

Prediction of SNOs between FY3D and AQUA Satellite Orbit:

Table of predicted SNOs for the next 14.0 days since TLE Epoch: 5/21/2021
Index Date (FY3D) Time (FY3D) Lat,Lon (FY3D) SZA (FY3D ) Date (AQUA) Time (AQUA) Lat,Lon (AQUA) SZA (AQUA ) Distance(km) Time Diff (sec)
1 05/22/2021 07:01:30 69.93, 74.00 49.38 05/22/2021 07:02:43 70.06, 74.88 49.51 36.58 73
2 05/22/2021 07:45:07 -46.10,-101.21 151.38 05/22/2021 07:45:14 -46.11,-101.03 151.30 14.18 7
3 05/22/2021 08:37:05 50.15, 64.38 31.68 05/22/2021 08:35:53 50.24, 64.95 31.84 42.44 72
4 05/24/2021 23:24:02 80.46, 99.49 69.15 05/24/2021 23:25:15 81.03, 97.90 69.33 69.33 73
5 05/25/2021 00:01:26 -46.09, 14.73 151.86 05/25/2021 00:01:43 -46.13, 14.84 151.76 9.54 17
6 05/25/2021 00:53:15 49.62,-179.45 30.78 05/25/2021 00:52:13 49.74,-178.95 30.95 37.97 62
7 05/27/2021 15:46:42 62.39, 164.73 89.92 05/27/2021 15:47:54 62.69, 163.02 90.09 93.84 72
8 05/27/2021 16:17:45 -46.09, 130.67 152.30 05/27/2021 16:18:11 -46.10, 130.74 152.23 5.07 26
9 05/27/2021 17:09:25 49.10, -63.28 29.93 05/27/2021 17:08:32 49.18, -62.84 30.07 33.23 53
10 05/30/2021 08:34:05 -46.20,-113.43 152.63 05/30/2021 08:34:40 -46.20,-113.42 152.57 1.12 35
11 05/30/2021 09:25:34 48.58, 52.89 29.12 05/30/2021 09:24:50 48.64, 53.27 29.23 28.56 44
12 06/02/2021 00:51:06 -48.62, 1.51 151.22 06/02/2021 00:51:49 -48.61, 1.53 151.16 1.45 43
13 06/02/2021 01:41:43 48.01, 169.07 28.32 06/02/2021 01:41:09 48.10, 169.37 28.44 23.93 34
14 06/04/2021 17:08:04 -50.85, 116.45 149.83 06/04/2021 17:08:55 -50.85, 116.47 149.77 1.80 51



Historial Predications of SNOs between FY3D and AQUA
